Regional Weather Roundup
Issued by NWS Little Rock, AR

Home | Current Version | Previous Version | Graphics & Text | Print | Product List | Glossary On
Versions: 1 2 3 4 5 6 7 8 9 10 11 12 13 14 15 16 17 18 19 20 21 22 23 24 25 26 27 28 29 30 31 32 33 34 35 36 37 38 39 40 41 42 43 44 45 46 47 48 49 50
000
ASUS44 KLZK 231705
RWRLZK

WEATHER ROUNDUP FOR ARKANSAS
NATIONAL WEATHER SERVICE LITTLE ROCK AR
1200 PM CDT WED JUL 23 2014

NOTE: "FAIR" INDICATES FEW OR NO CLOUDS BELOW 12,000 FEET WITH NO
SIGNIFICANT WEATHER AND/OR OBSTRUCTIONS TO VISIBILITY.

ARZ001-003-010-029-231800-
NORTHWEST ARKANSAS

CITY           SKY/WX    TMP DP  RH WIND       PRES   REMARKS
FAYETTEVILLE   MOSUNNY   88  76  67 NW9       30.10F HX  99
FORT SMITH     MOSUNNY   91  76  61 W13       30.06F HX 103
HARRISON       MOSUNNY   93  76  57 NW6       30.08F HX 105
BENTONVILLE    PTSUNNY   90  75  62 NW6       30.12R HX 100
ROGERS         MOSUNNY   89  75  63 NW10      30.11S HX  99
SILOAM SPGS    SUNNY     90  73  58 W7        30.10F HX  98
HIGHFILL       MOSUNNY   90  77  65 NW8       30.10S HX 103
SPRINGDALE     MOSUNNY   90  75  62 W9        30.12F HX 100
$$

ARZ004-005-016-231800-
NORTH CENTRAL ARKANSAS

CITY           SKY/WX    TMP DP  RH WIND       PRES   REMARKS
BATESVILLE     PTSUNNY   86  77  74 SE6       30.04S HX  97
FLIPPIN        SUNNY     91  73  55 N5        30.05S HX 100
MTN HOME       PTSUNNY   88  77  69 VRB3      30.05S HX 100
$$

ARZ040-041-231800-
WEST CENTRAL ARKANSAS

CITY           SKY/WX    TMP DP  RH WIND       PRES   REMARKS
MENA           SUNNY     88  77  70 CALM      30.11S HX 100
MOUNT IDA      PTSUNNY   84  74  71 VRB3      30.08R HX  91
$$

ARZ009-017-025-026-028-231800-
NORTHEAST ARKANSAS

CITY           SKY/WX    TMP DP  RH WIND       PRES   REMARKS
CORNING        LGT RAIN  88  73  62 SW12      30.02F HX  96
JONESBORO      MOSUNNY   87  71  58 SW10      30.04F HX  93
NEWPORT        MOSUNNY   88  73  60 S12       30.05S HX  95
WALNUT RIDGE   SUNNY     90  61  37 S13       30.02F HX  89
BLYTHEVILLE    MOSUNNY   88  73  61 S8        30.04F HX  95
NW BLYTHEVILLE MOSUNNY   90  73  58 SW12      30.04F HX  98
$$

ARZ022-023-033-042-044-231800-
CENTRAL ARKANSAS

CITY           SKY/WX    TMP DP  RH WIND       PRES   REMARKS
LITTLE ROCK    PTSUNNY   87  71  58 W5        30.06F HX  93
N LITTLE ROCK  PTSUNNY   85  75  71 SW6       30.06F HX  94
JACKSONVILLE   MOSUNNY   87  73  62 SW7       30.06F HX  94
SEARCY         PTSUNNY   87  74  65 VRB5      30.06F HX  95
HOT SPRINGS    MOSUNNY   82  74  76 VRB3      30.08F HX  88
RUSSELLVILLE   MOSUNNY   87  77  72 CALM      30.04F HX  99
CLINTON        FAIR      88  79  74 SE3       30.05F HX 102
$$

ARZ036-231800-
EAST ARKANSAS

CITY           SKY/WX    TMP DP  RH WIND       PRES   REMARKS
WEST MEMPHIS   SUNNY     87  75  67 W3        30.05F HX  96
$$

ARZ050-053-066-070-073-231800-
SOUTHWEST ARKANSAS

CITY           SKY/WX    TMP DP  RH WIND       PRES   REMARKS
ARKADELPHIA    PTSUNNY   88  74  63 SW7       30.08S HX  96
CAMDEN         MOSUNNY   90  70  51 W5        30.08R HX  95
TEXARKANA      CLOUDY    86  70  58 CALM      30.09S HX  90
EL DORADO      PTSUNNY   86  71  60 NW3       30.08F HX  91
DE QUEEN       MOSUNNY   85  74  69 W7        30.07S HX  92
$$

ARZ056-057-069-231800-
SOUTHEAST ARKANSAS

CITY           SKY/WX    TMP DP  RH WIND       PRES   REMARKS
PINE BLUFF     SUNNY     87  71  58 SW5       30.06F HX  93
STUTTGART      SUNNY     90  72  55 SW3       30.08S HX  96
MONTICELLO     MOSUNNY   87  70  56 NW5       30.07S HX  92

$$




USA.gov is the U.S. government's official web portal to all federal, state and local government web resources and services.